カタログに戻る

STARLINK-37595

運用中通信VLEO
NORAD 69847·PAYLOAD·🇺🇸 United States

打ち上げ Jul 5, 2026 から Cape Canaveral Space Force Station

Loading…

次のパス (今後24時間)

TLE

最新Source: CelesTrak SupGP

元期: Sep 15, 2026, 03:50 UTC

1 69847C 26154AE  26258.16020833  .00074945  00000+0  22138-2 0  2582
2 69847  53.1601 356.8780 0001173  88.5730 336.0527 15.34360025    18

AllMySatでSTARLINK-37595をリアルタイム追跡

Download on the App Store